Location: Bothwell
(42.3833°S, 147.0000°E)
Time: 05:18:12
(UTC+10:00)

VELOX 1 - Visible Passes

Search period start: 25 September 2022 00:00
Search period end: 05 October 2022 01:00
Orbit: 623 x 638 km, 98.4° (Epoch: 24 September)

Date Brightness Start Highest point End Pass type
(mag) Time Alt. Az. Time Alt. Az. Time Alt. Az.
25 Sep ? 05:11:05 10° SE 05:14:48 26° E 05:18:28 10° NNE visible
28 Sep ? 04:38:50 10° ESE 04:40:04 11° E 04:41:18 10° ENE visible
29 Sep ? 04:57:49 10° SE 05:00:54 18° E 05:03:57 10° NE visible
03 Oct ? 05:44:55 10° ESE 05:46:55 13° E 05:48:52 10° ENE visible
04 Oct ? 06:04:21 10° SE 06:07:43 21° E 06:11:01 10° NE visible
